User: anonymous   Login
Location: Unspecified
(0.0000°N, 0.0000°E)
Time: 03:26:31
(UTC+00:00)
Language:

NOSS 2-2 (D) - Orbit

View from above orbital plane
View from above orbital plane
View from above satellite
View from above satellite

Ground track
Ground track

The orbit data is extracted from the following two-line orbital elements,

1 21808U 91076D   17342.18654907 0.00000050  00000-0  15170-4 0    05
2 21808  63.3470  10.7653 0761000  27.2382 332.7617 13.41154500    07
Epoch (UTC): 08 December 2017 04:28:37
Eccentricity: 0.0761000
inclination: 63.3470°
perigee height: 535 km
apogee height: 1674 km
right ascension of ascending node: 10.7653°
argument of perigee: 27.2382°
revolutions per day: 13.41154500
mean anomaly at epoch: 332.7617°
orbit number at epoch: 0

The dashed part of the orbit path shows where the satellite is in the earth's shadow,  

DLR